This demonstration page uses our WeatherBlox Daily Observations layout. Learn more.

Left ArrowRight Arrow

34.74481, -87.66753

Hourly Observations for July 17, 2016

Temp ( °F °C ) Dew Point ( °F °C ) Humidity (%) Winds ( mph kmh ) Pressure ( in mb ) Visibility ( mi km ) Precip ( " mm )
12:53 am 00:53 Clear 72 22.2 69 20.6 91 91 Calm 30.09 1019 7 11 0.00 0.00
1:09 am 01:09 Clear with Mist and Fog 71 21.7 68 20 90 90 Calm 30.09 1019 2 2 0.00 0.00
1:31 am 01:31 Mostly Clear with Mist and Fog 71 21.7 68 20 90 90 Calm 30.09 1019 1 2 0.00 0.00
1:53 am 01:53 Mostly Clear with Mist and Fog 70 21.1 68 20 93 93 Calm 30.08 1019 3 5 0.00 0.00
2:06 am 02:06 Clear with Mist and Fog 70 21.1 68 20 93 93 Calm 30.06 1018 3 4 0.00 0.00
2:13 am 02:13 Clear with Mist and Fog 70 21.1 68 20 93 93 E 3 6 30.06 1018 5 8 0.00 0.00
2:53 am 02:53 Clear 71 21.7 69 20.6 94 94 Calm 30.09 1019 7 11 0.00 0.00
3:53 am 03:53 Clear 71 21.7 68 20 90 90 Calm 30.09 1019 8 13 0.00 0.00
4:53 am 04:53 Clear with Mist and Fog 70 21.1 67 19.4 90 90 Calm 30.10 1019 2 3 0.00 0.00
5:00 am 05:00 Clear with Mist and Fog 70 21.1 67 19.4 90 90 Calm 30.09 1019 1 2 0.00 0.00
5:09 am 05:09 Clear with Mist and Fog 70 21.1 67 19.4 90 90 Calm 30.09 1019 3 5 0.00 0.00
5:26 am 05:26 Clear with Mist and Fog 69 20.6 67 19.4 93 93 Calm 30.09 1019 2 3 0.00 0.00
5:35 am 05:35 Clear with Mist and Fog 69 20.6 67 19.4 93 93 Calm 30.09 1019 4 6 0.00 0.00
5:53 am 05:53 Sunny with Mist and Fog 69 20.6 67 19.4 93 93 Calm 30.12 1020 3 5 0.00 0.00
6:04 am 06:04 Sunny with Mist and Fog 69 20.6 67 19.4 93 93 Calm 30.12 1020 2 3 0.00 0.00
6:13 am 06:13 Sunny with Mist and Fog 70 21.1 67 19.4 90 90 Calm 30.12 1020 3 5 0.00 0.00
6:53 am 06:53 Sunny 72 22.2 69 20.6 91 91 Calm 30.14 1021 8 13 0.00 0.00
7:53 am 07:53 Sunny 75 23.9 71 21.7 88 88 SE 5 7 30.15 1021 10 16 0.00 0.00
8:53 am 08:53 Sunny 79 26.1 71 21.7 77 77 S 3 6 30.16 1022 10 16 0.00 0.00
9:53 am 09:53 Sunny 82 27.8 73 22.8 74 74 SSE 3 6 30.17 1022 10 16 0.00 0.00
10:53 am 10:53 Sunny 85 29.4 72 22.2 65 65 SW 6 9 30.17 1022 10 16 0.00 0.00
11:53 am 11:53 Mostly Cloudy 86 30 72 22.2 63 63 SSE 3 6 30.17 1022 10 16 0.00 0.00
12:53 pm 12:53 Partly Cloudy 88 31.1 71 21.7 57 57 undefined N/A 30.16 1021 10 16 0.00 0.00
1:53 pm 13:53 Mostly Sunny 90 32.2 72 22.2 56 56 SSE 7 11 30.15 1021 10 16 0.00 0.00
2:53 pm 14:53 Mostly Sunny 89 31.7 71 21.7 55 55 SSE 5 7 30.13 1020 10 16 0.00 0.00
3:53 pm 15:53 Partly Cloudy 93 33.9 69 20.6 46 46 VRB 5 7 30.12 1020 10 16 0.00 0.00
4:53 pm 16:53 Partly Cloudy 91 32.8 71 21.7 52 52 ESE 8 13 30.11 1020 10 16 0.00 0.00
5:53 pm 17:53 Sunny 89 31.7 73 22.8 59 59 E 3 6 30.11 1020 10 16 0.00 0.00
6:53 pm 18:53 Sunny 88 31.1 73 22.8 61 61 Calm 30.12 1020 10 16 0.00 0.00
7:53 pm 19:53 Sunny 83 28.3 75 23.9 77 77 SSE 3 6 30.14 1021 10 16 0.00 0.00
8:53 pm 20:53 Clear 80 26.7 75 23.9 85 85 SSE 7 11 30.14 1021 10 16 0.00 0.00
9:53 pm 21:53 Clear 80 26.7 73 22.8 79 79 Calm 30.16 1021 10 16 0.00 0.00
10:53 pm 22:53 Clear 78 25.6 73 22.8 85 85 SE 3 6 30.16 1021 10 16 0.00 0.00
11:53 pm 23:53 Clear 77 25 72 22.2 85 85 SSE 5 7 30.16 1021 10 16 0.00 0.00

Powered by AerisWeather